This is the latest recevied weather packets stored in our database for station/object LU2DKV-10. If no packets are shown the sender has not sent any weather packets the latest 10 day(s).
| Time | Temp. | Humidity | Pressure | Rain* | Wind** | Luminosity | Snow |
|---|---|---|---|---|---|---|---|
| 1777513614 | 15.56° C | 61% | 1014 hPa | - | - | 0 W/m² | - |
| 1777511792 | 16.11° C | 57% | 1014 hPa | - | - | 0 W/m² | - |
| 1777509970 | 16.67° C | 62% | 1013 hPa | - | - | 0 W/m² | - |
| 1777509901 | 16.67° C | 59% | 1013 hPa | - | - | 0 W/m² | - |
| 1777508079 | 16.67° C | 59% | 1013 hPa | - | - | 0 W/m² | - |
| 1777506257 | 17.22° C | 56% | 1013 hPa | - | - | 0 W/m² | - |
| 1777504436 | 17.78° C | 67% | 1012 hPa | - | - | 0 W/m² | - |
| 1777502613 | 17.78° C | 57% | 1012 hPa | - | - | 0 W/m² | - |
| 1777500792 | 18.33° C | 54% | 1011 hPa | - | - | 0 W/m² | - |
| 1777498969 | 18.89° C | 44% | 1011 hPa | - | - | 0 W/m² | - |
| 1777497148 | 19.44° C | 43% | 1011 hPa | - | - | 0 W/m² | - |
| 1777495389 | 20° C | 39% | 1010 hPa | - | - | 0 W/m² | - |
| 1777493503 | 20.56° C | 40% | 1010 hPa | - | - | 0 W/m² | - |
| 1777491681 | 21.11° C | 38% | 1010 hPa | - | - | 0 W/m² | - |
| 1777489859 | 21.11° C | 39% | 1009 hPa | - | - | 0 W/m² | - |
| 1777488037 | 21.11° C | 41% | 1009 hPa | - | - | 0 W/m² | - |
| 1777486215 | 21.11° C | 45% | 1009 hPa | - | - | 0 W/m² | - |
| 1777484393 | 21.11° C | 44% | 1009 hPa | - | - | 0 W/m² | - |
| 1777482571 | 21.11° C | 44% | 1009 hPa | - | - | 0 W/m² | - |
| 1777480749 | 20.56° C | 47% | 1009 hPa | - | - | 0 W/m² | - |
| 1777478927 | 20.56° C | 51% | 1010 hPa | - | - | 0 W/m² | - |
| 1777477105 | 21.11° C | 52% | 1010 hPa | - | - | 0 W/m² | - |
| 1777475283 | 20° C | 55% | 1010 hPa | - | - | 0 W/m² | - |
| 1777473461 | 19.44° C | 56% | 1010 hPa | - | - | 0 W/m² | - |
| 1777471639 | 18.33° C | 57% | 1009 hPa | - | - | 0 W/m² | - |
* Rain since midnight (hover to see other rain measurements)
** Current wind speed in m/s (hover to see current wind gust speed)